AirNav   Air Wisconsin pilot careers
 
 1290 users online  

1T7 Kestrel Airpark
San Antonio, Texas, USA

GOING TO SAN ANTONIO?


FAA INFORMATION EFFECTIVE 06 DECEMBER 2018

Location

FAA Identifier: 1T7
Lat/Long: 29-48-42.3000N / 098-25-33.8000W
29-48.705000N / 098-25.563333W
29.8117500 / -98.4260556
(estimated)
Elevation: 1261 ft. / 384 m (estimated)
Variation: 07E (1995)
From city: 23 miles N of SAN ANTONIO, TX
Time zone: UTC -6 (UTC -5 during Daylight Saving Time)
Zip code: 78070

Airport Operations

Airport use: Open to the public
Activation date: 06/1999
Control tower: no
ARTCC: HOUSTON CENTER
FSS: SAN ANGELO FLIGHT SERVICE STATION
NOTAMs facility: SJT (NOTAM-D service available)
Attendance: CONTINUOUS
Wind indicator: yes
Segmented circle: yes
Lights: SS-SR

Airport Communications

CTAF/UNICOM: 122.975
WX AWOS-3 at 5C1 (15 nm W): 118.725 (830-755-9099)
WX ASOS at SAT (17 nm S): PHONE 210-805-5583

Nearby radio navigation aids

VOR radial/distance  VOR name  Freq  Var
SATr002/10.2SAN ANTONIO VORTAC116.8008E
RNDr332/19.0RANDOLPH VORTAC112.3005E
STVr140/27.8STONEWALL VORTAC113.8008E
SSFr353/(33.2)STINSON VOR108.4009E

 
NDB name  Hdg/Dist  Freq  Var  ID
ALAMO027/14.436804EAN .- -.

Airport Services

Fuel available: 100LL
FUEL SELF SERVICE. FOR ASSISTANCE CALL AMGR AT 830-522-1885.
Parking: tiedowns
Airframe service: MAJOR
Powerplant service: MAJOR
Bulk oxygen: HIGH

Runway Information

Runway 12/30

Dimensions: 3000 x 40 ft. / 914 x 12 m
Surface: asphalt, in good condition
Runway edge lights: non-standard
NSTD LIRL; RY 12 LGTS NOT AT THLD.
Runway edge markings: MARKINGS ARE FADED
RY NRS 35 FT HIGH.
Operational restrictions: RY 30 RISES RAPIDLY AT NORTH END.
RUNWAY 12  RUNWAY 30
Latitude: 29-48.856647N29-48.553942N
Longitude: 098-25.788255W098-25.339040W
Elevation: 1261.0 ft.1218.0 ft.
Gradient: 1.4% UP
Traffic pattern: leftright
Runway heading: 121 magnetic, 128 true301 magnetic, 308 true
Markings: NSTD, in poor conditionNSTD, in poor condition
Obstructions: 21 ft. trees, 295 ft. from runway, 30 ft. left of centerline, 4:1 slope to clear
+15 FT ROAD 0 FT FM THLD 70 FT L OF CNTRLN, +35 FT TREE 110 FT FM THLD 70 FT L OF CNTRLN, +20 FT TREE 25 FT FM THLD 90 FT L OF CNTRLN.
15 ft. road, 200 ft. from runway
+15 FT ROAD 15-200 FT FM THLD 0-120 FT L OF CNTRLN.

Airport Ownership and Management from official FAA records

Ownership: Privately-owned
Owner: KESTREL AIRPARK RUNWAY ASSOCIATION
150 FLIGHTLINE DRIVE
SPRING BRANCH, TX 78070
Phone (830) 522-1885
Manager: DOUG HOOKER
210 KESTREL DRIVE
SPRING BRANCH, TX 78070
Phone (830) 522-1885

Airport Operational Statistics

Aircraft based on the field: 83
Single engine airplanes: 75
Multi engine airplanes: 5
Helicopters: 2
Ultralights: 1
    
Aircraft operations: avg 133/week *
95% local general aviation
5% transient general aviation
* for 12-month period ending 27 September 2016

Additional Remarks

DEER ON & INVOF RY.
TGL AND LOW APCHS PROHIBITED FOR TRANSIENT & COMMERICAL ACFTS. TKOFS RSTRD BTN 2200-0600.
NO HEL TRNG OPS ALLOWED.
FOR CD CTC SAT APCH AT 210-805-5516.

Instrument Procedures

There are no published instrument procedures at 1T7.

Some nearby airports with instrument procedures:

5C1 - Boerne Stage Field Airport (15 nm W)
KSAT - San Antonio International Airport (17 nm S)
KRND - Randolph Air Force Base (19 nm SE)
KBAZ - New Braunfels Regional Airport (21 nm E)
KSKF - Kelly Field Airport (27 nm S)
 
Loc | Ops | Rwys | IFR | FBO | Links
Com | Nav | Svcs | Stats | Notes


 
Area around 1T7 (Kestrel Airpark)
 
Road maps at: MapQuest Bing Google
 
Aerial photo
WARNING: Photo may not be current or correct
Aerial photo of 1T7 (Kestrel Airpark)
Do you have a better or more recent aerial photo of Kestrel Airpark that you would like to share? If so, please send us your photo.

 
Sectional chart

 
Airport distance calculator
Flying to Kestrel Airpark? Find the distance to fly.

From to 1T7

Sunrise and sunset
Times for 14-Dec-2018
 Local
(UTC-6)
 Zulu
(UTC)
Morning civil twilight06:5612:56
Sunrise07:2213:22
Sunset17:3523:35
Evening civil twilight18:0100:01

Current date and time
Zulu (UTC)  14-Dec-2018 18:43:05
Local (UTC-6)  14-Dec-2018 12:43:05
 
METAR
K5C1 
15nm W 
141815Z AUTO 33013G25KT 300V360 10SM OVC032 09/00 A3011 RMK AO1
KSAT 
17nm S 
141751Z 33016G26KT 10SM BKN039 12/01 A3011 RMK AO2 PK WND 30031/1713 SLP187 60000 T01170011 10122 20056 50006
KRND 
20nm SE 
141756Z AUTO 31021G26KT 10SM OVC036 11/01 A3010 RMK AO2 PK WND 31032/00 SLP193 T01070012 10107 20057 50006
KBAZ 
20nm E 
141751Z 33022G31KT 10SM OVC033 11/02 A3008 RMK AO2 PK WND 34031/1749 SLP184 T01060017 10111 20067 50007
KSKF 
28nm S 
141756Z 32019G27KT 10SM BKN045 13/01 A3009 RMK AO2A PK WND 32027/46 SLP190 T01270011 10128 20064 50006 $
KSSF 
29nm S 
141753Z 31016G26KT 10SM BKN044 13/M01 A3010 RMK AO2 PK WND 29026/1752 SLP192 T01331006 10144 20072 50004 $
KHYI 
29nm E 
141756Z 33019G30KT 10SM OVC025 09/03 A3009 RMK AO2 PK WND 31030/1754 SLP186 T00890028 10089 20061 50009
TAF
KSAT 
17nm S 
141721Z 1418/1524 32019G29KT P6SM BKN040 FM150000 32010KT P6SM SKC
KRND 
20nm SE 
141800Z 1418/1524 32015G25KT 9999 OVC025 QNH3005INS BECMG 1500/1501 32015G25KT 9999 BKN040 QNH3008INS BECMG 1504/1505 33010KT 9999 FEW050 QNH3015INS BECMG 1515/1516 33012G18KT 9999 SKC QNH3018INS TX15/1518Z TN02/1511Z LAST NO AMDS AFT 1501 NEXT 1710
NOTAMs
Click for the latest NOTAMs
NOTAMs are issued by the DoD/FAA and will open in a separate window not controlled by AirNav.

 

 
 

FBO, Fuel Providers, and Aircraft Ground Support

  
 Business Name 
 
 Contact 
 
 Services / Description 
 
Fuel Prices
 
Comments
  
 Aloha Aviation Services
830-522-1885
[web site]
[email]
Aviation fuel, Oxygen service, Aircraft parking (ramp or tiedown), Hangars, Hangar leasing / sales, Passenger terminal and lounge, Flight training, ...

More info about Aloha Aviation Services
Phillips 66
100LL
SS $4.19 
GUARANTEED
 
   4 read write
SS=Self service
Update Fuel Prices
 

Would you like to see your business listed on this page?

 If your business provides an interesting product or service to pilots, flight crews, aircraft, or users of the Kestrel Airpark, you should consider listing it here.  To start the listing process, click on the button below
 
Add a business
 

Other Pages about Kestrel Airpark

www.kestrelairport.com
www.kestrel-airpark.com
 
Update a link
 
Copyright © AirNav, LLC. All rights reserved. Privacy Policy  Contact